2024/02/14 00:00:00,13.1, 3.4
2024/02/14 00:10:00,13.1, 3.3
2024/02/14 00:20:00,13.1, 3.3
2024/02/14 00:30:00,13.1, 3.4
2024/02/14 00:40:00,13.1, 3.4
2024/02/14 00:50:00,13.1, 3.5
2024/02/14 01:00:00,13.1, 3.1
2024/02/14 01:10:00,13.1, 3.0
2024/02/14 01:20:00,13.1, 2.7
2024/02/14 01:30:00,13.1, 2.9
2024/02/14 01:40:00,13.2, 3.9
2024/02/14 01:50:00,13.2, 3.9
2024/02/14 02:00:00,13.2, 3.5
2024/02/14 02:10:00,13.2, 4.1
2024/02/14 02:20:00,13.2, 3.8
2024/02/14 02:30:00,13.2, 3.9
2024/02/14 02:40:00,13.3, 4.1
2024/02/14 02:50:00,13.2, 3.8
2024/02/14 03:00:00,13.2, 4.2
2024/02/14 03:10:00,13.2, 4.0
2024/02/14 03:20:00,13.3, 4.3
2024/02/14 03:30:00,13.3, 4.2
2024/02/14 03:40:00,13.2, 4.5
2024/02/14 03:50:00,13.2, 4.0
2024/02/14 04:00:00,13.1, 4.6
2024/02/14 04:10:00,13.1, 5.0
2024/02/14 04:20:00,13.1, 4.7
2024/02/14 04:30:00,13.1, 5.1
2024/02/14 04:40:00,13.1, 5.7
2024/02/14 04:50:00,13.1, 5.6
2024/02/14 05:00:00,13.1, 5.9
2024/02/14 05:10:00,13.0, 5.3
2024/02/14 05:20:00,13.0, 5.6
2024/02/14 05:30:00,13.0, 5.7
2024/02/14 05:40:00,13.0, 5.7
2024/02/14 05:50:00,13.0, 5.7
2024/02/14 06:00:00,13.0, 5.3
2024/02/14 06:10:00,13.0, 5.1
2024/02/14 06:20:00,13.0, 5.9
2024/02/14 06:30:00,13.0, 6.4
2024/02/14 06:40:00,13.0, 5.7
2024/02/14 06:50:00,13.0, 6.3
2024/02/14 07:00:00,12.8, 5.7
2024/02/14 07:10:00,12.7, 5.7
2024/02/14 07:20:00,12.5, 5.3
2024/02/14 07:30:00,12.4, 5.6
2024/02/14 07:40:00,12.4, 5.9
2024/02/14 07:50:00,12.4, 6.0
2024/02/14 08:00:00,12.4, 6.2
2024/02/14 08:10:00,12.3, 6.2
2024/02/14 08:20:00,12.3, 7.1
2024/02/14 08:30:00,12.3, 9.4
2024/02/14 08:40:00,12.1,10.3
2024/02/14 08:50:00,11.8,10.7
2024/02/14 09:00:00,11.7,10.9
2024/02/14 09:10:00,11.7,10.1
2024/02/14 09:20:00,11.5,11.8
2024/02/14 09:30:00,11.4,12.0
2024/02/14 09:40:00,11.0,12.5
2024/02/14 09:50:00,10.9,12.2
2024/02/14 10:00:00,10.8,11.3
2024/02/14 10:10:00,11.0,11.2
2024/02/14 10:20:00,11.0,10.7
2024/02/14 10:30:00,10.8,11.2
2024/02/14 10:40:00,10.6,11.7
2024/02/14 10:50:00,10.3,12.3
2024/02/14 11:00:00,10.0,12.2
2024/02/14 11:10:00, 9.8,13.2
2024/02/14 11:20:00, 9.4,13.5
2024/02/14 11:30:00, 9.8,12.9
2024/02/14 11:40:00,10.0,13.1
2024/02/14 11:50:00,10.0,12.7
2024/02/14 12:00:00, 9.5,14.1
2024/02/14 12:10:00, 9.3,13.0
2024/02/14 12:20:00, 8.3,12.7
2024/02/14 12:30:00, 7.4,12.9
2024/02/14 12:40:00, 7.7,13.1
2024/02/14 12:50:00, 7.7,13.6
2024/02/14 13:00:00, 7.3,13.1
2024/02/14 13:10:00, 7.1,13.0
2024/02/14 13:20:00, 6.9,14.9
2024/02/14 13:30:00, 6.3,14.6
2024/02/14 13:40:00, 6.6,14.6
2024/02/14 13:50:00, 6.8,13.6
2024/02/14 14:00:00, 6.2,18.7
2024/02/14 14:10:00, 6.5,12.5
2024/02/14 14:20:00, 6.6,13.9
2024/02/14 14:30:00, 6.6,12.3
2024/02/14 14:40:00, 6.4,11.6
2024/02/14 14:50:00, 6.2,13.1
2024/02/14 15:00:00, 6.1,13.5
2024/02/14 15:10:00, 5.6,12.6
2024/02/14 15:20:00, 5.7,11.8
2024/02/14 15:30:00, 5.6,12.2
2024/02/14 15:40:00, 5.9,12.3
2024/02/14 15:50:00, 5.8,12.3
2024/02/14 16:00:00, 5.8,10.9
2024/02/14 16:10:00, 5.9,10.7
2024/02/14 16:20:00, 5.7,10.3
2024/02/14 16:30:00, 5.7,10.1
2024/02/14 16:40:00, 5.7,10.3
2024/02/14 16:50:00, 5.7,10.2
2024/02/14 17:00:00, 5.8, 9.6
2024/02/14 17:10:00, 5.8,10.0
2024/02/14 17:20:00, 5.8, 9.9
2024/02/14 17:30:00, 5.9, 8.8
2024/02/14 17:40:00, 5.9, 9.6
2024/02/14 17:50:00, 5.9, 8.8
2024/02/14 18:00:00, 6.1, 7.9
2024/02/14 18:10:00, 6.2, 7.9
2024/02/14 18:20:00, 6.1, 7.2
2024/02/14 18:30:00, 6.1, 8.9
2024/02/14 18:40:00, 6.0, 8.5
2024/02/14 18:50:00, 6.0, 9.1
2024/02/14 19:00:00, 5.8, 8.3
2024/02/14 19:10:00, 5.8, 8.4
2024/02/14 19:20:00, 5.9, 9.1
2024/02/14 19:30:00, 5.9, 9.2
2024/02/14 19:40:00, 5.9, 8.6
2024/02/14 19:50:00, 5.9, 8.0
2024/02/14 20:00:00, 5.8, 7.6
2024/02/14 20:10:00, 5.7, 7.4
2024/02/14 20:20:00, 5.7, 7.5
2024/02/14 20:30:00, 5.7, 7.7
2024/02/14 20:40:00, 5.7, 7.0
2024/02/14 20:50:00, 5.6, 7.7
2024/02/14 21:00:00, 5.6, 7.0
2024/02/14 21:10:00, 5.6, 7.2
2024/02/14 21:20:00, 5.6, 8.1
2024/02/14 21:30:00, 5.5, 8.5
2024/02/14 21:40:00, 5.4,10.0
2024/02/14 21:50:00, 5.3,10.0
2024/02/14 22:00:00, 5.2, 8.8
2024/02/14 22:10:00, 5.2, 8.5
2024/02/14 22:20:00, 5.3, 9.4
2024/02/14 22:30:00, 5.1,10.1
2024/02/14 22:40:00, 4.8,10.3
2024/02/14 22:50:00, 4.8,10.1
2024/02/14 23:00:00, 4.8,10.5
2024/02/14 23:10:00, 4.8,10.3
2024/02/14 23:20:00, 4.7,10.2
2024/02/14 23:30:00, 4.7,10.0
2024/02/14 23:40:00, 4.6, 8.8
2024/02/14 23:50:00, 4.7,10.4
